Orbital Elements at Epoch 2459200.5 (2020-Dec-17.0) TDB
Reference: JPL 18 (heliocentric ecliptic J2000)
Element | Value | Uncertainty (1-sigma) | Units |
e | .1300827397391048 | 3.8474e-08 | |
a | 2.617879972893413 | 1.3724e-08 | au |
q | 2.277338973711304 | 1.0442e-07 | au |
i | 11.88254053089776 | 4.8035e-06 | deg |
node | 233.838014906917 | 1.7526e-05 | deg |
peri | 253.8840030339699 | 2.6757e-05 | deg |
M | 296.665363738061 | 2.1671e-05 | deg |
tp | 2459472.683505332311 (2021-Sep-15.18350533) | 9.4017e-05 | TDB |
period | 1547.116517956809 4.24 | 1.2166e-05 3.331e-08 | d yr |
n | .2326909420341734 | 1.8297e-09 | deg/d |
Q | 2.958420972075521 | 1.5509e-08 | au |
|
| | Orbit Determination Parameters
Additional Information
|